GSAT0216 (GALILEO 20)

Last updated on Sat Oct 18 2025 00:02:37 GMT+0000 (Coordinated Universal Time)

1 43056U 17079B 25290.46173366 -.00000039 00000+0 00000+0 0 9997 2 43056 55.1537 228.1856 0003800 291.2243 68.7081 1.70473891 48868
UTC large
Height (km)
Speed (km/s)
/
Latitude / Longitude
Inclination (degrees)
Orbital Period (minutes)
Azimuth
Elevation
Range (km)
Doppler Factor

Next 0 passes for location: London (51.5072 / 0.1276)

Sorry there are no passes over London.